• MPC Preparation (Info)

  • MPEC 2006-X32 : 2006 XX

    The following Minor Planet Electronic Circular may be linked-to from your own Web pages, but must not otherwise be redistributed electronically.

    A form allowing access to any MPEC is at the bottom of this page.


    Read MPEC 2006-X31 Read MPEC 2006-X33


    M.P.E.C. 2006-X32                                Issued 2006 Dec. 11, 16:44 UT
    
         The Minor Planet Electronic Circulars contain information on unusual
             minor planets and routine data on comets.  They are published
       on behalf of Commission 20 of the International Astronomical Union by the
              Minor Planet Center, Smithsonian Astrophysical Observatory,
                              Cambridge, MA 02138, U.S.A.
    
                 Prepared using the Tamkin Foundation Computer Network
    
                                  MPC@CFA.HARVARD.EDU
              URL http://cfa-www.harvard.edu/iau/mpc.html  ISSN 1523-6714
    
                                        2006 XX
    
    Observations:
         K06X00X* C2006 12 10.27940 06 52 13.80 +22 01 48.4          20.4 V EX032691
         K06X00X  C2006 12 10.29678 06 52 18.13 +22 02 45.4          20.5 V EX032691
         K06X00X  C2006 12 10.31417 06 52 22.44 +22 03 41.8          20.3 V EX032691
         K06X00X tC2006 12 10.43633 06 52 52.20 +22 10 08.9          18.4 V EX032291
         K06X00X tC2006 12 10.44053 06 52 53.17 +22 10 22.7          20.5 V EX032291
         K06X00X tC2006 12 10.44459 06 52 54.20 +22 10 34.6          20.1 V EX032291
         K06X00X tC2006 12 11.25563 06 56 34.43 +22 52 03.4          19.7 V EX032291
         K06X00X tC2006 12 11.25997 06 56 35.48 +22 52 17.0          20.1 V EX032291
         K06X00X tC2006 12 11.26407 06 56 36.49 +22 52 30.0          20.0 V EX032291
    
    Observer details:
    291 LPL/Spacewatch II.  Observer T. H. Bressi.  1.8-m f/2.7 reflector + CCD.
    691 Steward Observatory, Kitt Peak.  Observer T. H. Bressi.  0.9-m f/3
        reflector + CCD.
    
    Orbital elements:
    2006 XX                                                  Earth MOID = 0.0783 AU
    Epoch 2006 Sept. 22.0 TT = JDT 2454000.5                MPC
    M 345.64704              (2000.0)            P               Q
    n   0.24030212     Peri.  337.10742     +0.52103435     -0.84879147
    a   2.5623059      Node    81.38398     +0.79649611     +0.44566855
    e   0.5867114      Incl.    5.21502     +0.30678518     +0.28448652
    P   4.10           H   23.5           G   0.15           U   7
    Residuals in seconds of arc
    061210 691  0.2+  0.1-    061210 291  0.6+  0.3-    061211 291  0.1-  0.2-
    061210 691  0.2+  0.1+    061210 291  0.2-  0.5+    061211 291  0.2+  0.1-
    061210 691  0.5+  0.1-    061210 291  0.3+  0.2-    061211 291  0.7+  0.2+
    
    Ephemeris:
    2006 XX                  a,e,i = 2.56, 0.59, 5                   q = 1.0590
    Date    TT    R. A. (2000) Decl.     Delta      r     Elong.  Phase     V
    2006 12 11    06 55.41   +22 39.5    0.114    1.090   155.9    21.6    20.0
    2006 12 13    07 03.64   +24 14.7    0.121    1.096   156.2    21.2    20.2
    2006 12 15    07 10.87   +25 38.4    0.128    1.103   156.6    20.7    20.3
    2006 12 17    07 17.18   +26 52.0    0.136    1.110   157.2    20.1    20.4
    2006 12 19    07 22.67   +27 56.6    0.143    1.118   157.8    19.4    20.5
    2006 12 21    07 27.41   +28 53.3    0.152    1.126   158.6    18.6    20.6
    2006 12 23    07 31.48   +29 43.2    0.160    1.135   159.5    17.7    20.7
    2006 12 25    07 34.96   +30 26.8    0.169    1.144   160.4    16.7    20.8
    2006 12 27    07 37.93   +31 04.8    0.178    1.154   161.4    15.8    20.9
    2006 12 29    07 40.43   +31 37.9    0.188    1.164   162.4    14.8    21.0
    2006 12 31    07 42.55   +32 06.6    0.198    1.174   163.4    13.8    21.1
    2007 01 02    07 44.32   +32 31.1    0.208    1.185   164.4    12.9    21.2
    2007 01 04    07 45.79   +32 52.0    0.219    1.196   165.3    12.1    21.3
    2007 01 06    07 47.01   +33 09.6    0.230    1.207   166.1    11.3    21.4
    2007 01 08    07 48.01   +33 24.1    0.241    1.219   166.7    10.7    21.5
    2007 01 10    07 48.84   +33 35.8    0.253    1.231   167.2    10.2    21.6
    2007 01 12    07 49.52   +33 44.9    0.265    1.244   167.4     9.9    21.7
    2007 01 14    07 50.10   +33 51.6    0.278    1.256   167.4     9.8    21.9
    2007 01 16    07 50.59   +33 56.1    0.291    1.269   167.1     9.9    22.0
    2007 01 18    07 51.04   +33 58.6    0.305    1.282   166.6    10.2    22.1
    2007 01 20    07 51.47   +33 59.1    0.319    1.295   165.9    10.7    22.3
    
    Timothy B. Spahr             (C) Copyright 2006 MPC           M.P.E.C. 2006-X32
    

    Read MPEC 2006-X31 Read MPEC 2006-X33


    MPEC number:

    Enter an MPEC number in one of the following forms:

    • 1997-B01 (the full form)
    • J97B01 (the packed version of the full form)
    • B01 (the abbreviated form)